Regional Weather Roundup
Issued by NWS Burlington, VT

Home | Current Version | Previous Version | Text Only | Print | Product List | Glossary On
Versions: 1 2 3 4 5 6 7 8 9 10 11 12 13 14 15 16 17 18 19 20 21 22 23 24 25 26 27 28 29 30 31 32 33 34 35 36 37 38 39 40 41 42 43 44 45 46 47 48 49 50
000
ASUS41 KBTV 090410
RWRBTV
VERMONT REGIONAL WEATHER ROUNDUP
NATIONAL WEATHER SERVICE BURLINGTON VT
1100 PM EST MON FEB 08 2016

NOTE: "FAIR" INDICATES FEW OR NO CLOUDS BELOW 12,000 FEET WITH NO
SIGNIFICANT WEATHER AND/OR OBSTRUCTIONS TO VISIBILITY.

* THESE REPORTS ARE NOT UNDER NWS QUALITY CONTROL AND/OR DO NOT
  REPORT WEATHER SUCH AS PRECIPITATION AND FOG.

VTZ001>019-090500-
_____VERMONT_____


CITY           SKY/WX    TMP DP  RH WIND       PRES   REMARKS
BURLINGTON     LGT SNOW  22  16  78 N5        29.79F WCI  16
MONTPELIER     LGT SNOW  18  14  84 N6        29.79F FOG     WCI  10
MORRISVILLE    LGT SNOW  20  14  77 CALM      29.80F
ST. JOHNSBURY*   N/A     20  15  81 MISG      29.77F
LYNDONVILLE*   LGT SNOW  17  13  85 NW7       29.77F WCI   8
RUTLAND*       CLOUDY    21  18  86 SW6       29.75S WCI  14
SPRINGFIELD    LGT SNOW  21  17  84 CALM      29.78F FOG
HIGHGATE*      LGT SNOW  20  15  81 E6        29.82S WCI  12
NEWPORT*       LGT SNOW  17  14  89 NE5       29.80F WCI   9
BENNINGTON     LGT SNOW  22  20  92 CALM      29.74F FOG

_____LAKE CHAMPLAIN_____


CITY           SKY/WX    TMP DP  RH WIND       PRES   REMARKS

$$

NYZ007-026>031-035-052-083-090500-
_____NORTHERN NEW YORK_____


CITY           SKY/WX    TMP DP  RH WIND       PRES   REMARKS
PLATTSBURGH    LGT SNOW  21  17  84 NW5       29.80F FOG     WCI  15
SARANAC LAKE   LGT SNOW  16  12  84 E7        29.67F FOG     WCI   6
MASSENA        LGT SNOW  19  12  74 E14       29.81F WCI   6
OGDENSBURG*    CLEAR     21  14  73 E15       29.74F WCI   8
WATERTOWN      CLOUDY    24  12  60 NE12      29.69F WCI  13
ALBANY         LGT SNOW  25  21  85 CALM      29.79F FOG
GLENS FALLS    LGT SNOW  24  20  84 NE3       29.78F FOG

$$
NHZ002-005-011-090500-
_____NEW HAMPSHIRE_____


CITY           SKY/WX    TMP DP  RH WIND       PRES   REMARKS
LEBANON        LGT SNOW  21  16  81 N6        29.77F WCI  13
MT WASHINGTON  SNOW       9   9 100 E14         N/A  VSB 1/8 WCI  -8
PLYMOUTH       LGT SNOW  21  19  93 CALM      29.78F
WHITEFIELD     LGT SNOW  18  12  77 E7        29.75F WCI   9

$$

_____REGIONAL QUEBEC LOCATIONS_____


CITY           SKY/WX    TMP DP  RH WIND       PRES   REMARKS
MONTREAL       FLURRIES  19   7  58 NE15G23   29.85F WCI   5
QUEBEC CITY    FLURRIES  19  10  68 E13G20    29.92F WCI   7
SHERBROOKE     LGT SNOW  14  12  92 E9        29.83F WCI   2

_____REGIONAL ONTARIO LOCATIONS_____


CITY           SKY/WX    TMP DP  RH WIND       PRES   REMARKS
OTTAWA         FLURRIES  19   9  63 E15G32    29.78F WCI   5

______KEY______
VSB  - VISIBILITY IN MILES
WCI  - WIND CHILL INDEX
HX   - HEAT INDEX
$$
NNNN



USA.gov is the U.S. government's official web portal to all federal, state and local government web resources and services.